OBJECT D, 100783

Orbit data source: Space-Track

You're viewing an uncataloged RSO

Recently launched and/or uncataloged RSOs may have evolving metadata. Metadata may include the following, but is not limited to: Owner, Manufacturer, Bus, Motor, and Mission.

OBJECT D, 100783 is a Chinese satellite in SSO that was launched on Mon, 21 Sep 2026 UTC launched from the Jiuquan Satellite Launch Center, China (JSC). Unknown objects in Earth's orbit typically refer to objects detected orbiting the Earth but have not yet been identified or cataloged. These objects could be anything from previously untracked satellites, spent rocket stages, debris from satellite collisions, or even natural meteoroids temporarily captured by Earth's gravity.

Loading next visibility...
Identifier
100783, 2026-220D
Orbit
SSO
Country
Flag of CNCN / PRC
Related business
None
Manufacturer
Unknown
Mission
Operational spacecraft
Bus & Motor
Unknown
Mass
Unknown
Launch date (UTC)
Icon of a cake. It is the launch day of the satellite!2026-09-21 (11 hours ago)
Launch vehicle
Unknown
Launch site
Jiuquan Satellite Launch Center, China (JSC)
Object type
Unknown
Shape & HBR
Unknown
Radar Cross Section
RCS unknown

Expand to show TLE details & history
Last TLE update: 8 hours ago

TLE from 8 hours ago
0 OBJECT D
1 A0783U 26220D   26264.60361524  .00004442  00000-0  27107-3 0  9991
2 A0783  97.5516 338.0551 0013902 274.2589  85.7052 15.10761846   220
Epoch: 2026-09-21T14:29Z
TLE epoch observation values (Epoch: 2026-09-21T14:29:12.356Z)
Latitude
-0.00004°
Longitude
120.27255°
Altitude
536.242 km
Speed
7.595 km/s
True Right ascension
22h 32m 13s
True Declination
0° 00' 00"
Sunlit
Object was in full shadow at epoch
Visualization orbit readout
Latitude
Unknown
Longitude
Unknown
Altitude
Unknown
Speed
Unknown
Apparent Right ascension
Unknown
Apparent Declination
Unknown
Sunlit
N/A
Visualization observer readout
Local Sidereal Time
15:36:47
Azimuth
Unknown
Elevation
Unknown
Doppler factor
Unknown
Orbital elements
Apogee altitude
540.465 km
Perigee altitude
521.255 km
Semi-major axis
6,908.997 km
Eccentricity
0.00139
Inclination
97.5516°
RAAN
338.0551°
Arg. of periapsis
274.2589°
True anomaly
85.86408°
Mean anomaly
85.7052°
Eccentric anomaly
85.78464°
Mean motion
3.77938 °/min
Orbital period
95.25 mins
BSTAR
0.00027107
Loading maneuver chart data...
Computing Atmospheric mass density...
Loading historical data...
Loading historical data...
Loading historical data...
Loading historical data...
Loading historical data...
Loading historical data...
Loading historical data...

Documentation

Showing up to 5 results
|